Casper, WY

3:45 AM MDT on May 23, 2018 (GMT -0600)
Natrona County International

Weather History for KCPR - October, 2011

Change the Weather History Date:

Saturday, October 15, 2011

  Actual Average Record
Temperature  
Mean Temperature 58 °F 45 °F  
Max Temperature 79 °F 60 °F 80 °F (1958)
Min Temperature 37 °F 31 °F 20 °F (1960)
Degree Days  
Heating Degree Days 7 20  
Month to date heating degree days 177 259  
Since 1 July heating degree days 338 544  
Cooling Degree Days 0 0  
Month to date cooling degree days 7 0  
Year to date cooling degree days 519 422  
Growing Degree Days 6 (Base 50)    
Moisture  
Dew Point 33 °F    
Average Humidity 50    
Maximum Humidity 82    
Minimum Humidity 17    
Precipitation  
Precipitation 0.00 in 0.04 in 1.28 in (1994)
Month to date precipitation 1.13 0.57  
Year to date precipitation 11.06 10.73  
Snow  
Snow 0.00 in 0.30 in - ()
Month to date snowfall 1.2 3.1  
Since 1 July snowfall 1.2 4.9  
Since 1 September snowfall 1.2 4.9  
Snow Depth 0.00 in    
Sea Level Pressure  
Sea Level Pressure 29.91 in    
Wind  
Wind Speed 15 mph (West)    
Max Wind Speed 25 mph    
Max Gust Speed 38 mph    
Visibility 10 miles    
Events      
T = Trace of Precipitation, MM = Missing Value Source: NWS Daily Summary

Daily Weather History Graph

Daily Weather History Graph

Search for Another Location

Airport or City:

Astronomy

Oct. 15, 2011 Rise Set
Actual Time 7:19 AM MDT 6:23 PM MDT
Civil Twilight 6:50 AM MDT 6:52 PM MDT
Nautical Twilight 6:17 AM MDT 7:24 PM MDT
Astronomical Twilight 5:44 AM MDT 7:57 PM MDT
Moon 8:16 PM MDT (10/15) 10:51 AM MDT (10/15)
Length of Visible Light 12h 01m
Length of Day
11h 04m
Waning Gibbous, 88% of the Moon is Illuminated
Oct 15
Waning Gibbous
Oct 19
Last Quarter
Oct 26
New
Nov 2
First Quarter
Nov 10
Full

Hourly Weather History & Observations

Time (MDT) Temp. Windchill Dew Point Humidity Pressure Visibility Wind Dir Wind Speed Gust Speed Precip Events Conditions
12:53 AM 36.0 °F 33.3 °F 30.0 °F 79% 29.96 in 10.0 mi WNW 3.5 mph - N/A   Clear
1:53 AM 48.0 °F - 34.0 °F 58% 29.91 in 10.0 mi WSW 5.8 mph - N/A   Clear
2:53 AM 48.9 °F - 34.0 °F 56% 29.91 in 10.0 mi SW 9.2 mph - N/A   Clear
3:53 AM 50.0 °F - 34.0 °F 54% 29.88 in 10.0 mi SW 13.8 mph - N/A   Clear
4:53 AM 51.1 °F - 35.1 °F 54% 29.88 in 10.0 mi SW 16.1 mph - N/A   Clear
5:53 AM 51.1 °F - 35.1 °F 54% 29.89 in 10.0 mi SW 16.1 mph - N/A   Clear
6:53 AM 51.1 °F - 34.0 °F 52% 29.91 in 10.0 mi WSW 16.1 mph - N/A   Clear
7:53 AM 51.8 °F - 33.8 °F 50% 30.00 in 10.0 mi SW 13.8 mph - N/A   Clear
8:53 AM 57.0 °F - 33.1 °F 40% 29.91 in 10.0 mi SSW 16.1 mph - N/A   Clear
9:53 AM 62.1 °F - 32.0 °F 32% 29.90 in 10.0 mi SW 21.9 mph 28.8 mph N/A   Clear
10:53 AM 66.0 °F - 32.0 °F 28% 29.90 in 10.0 mi SW 23.0 mph 28.8 mph N/A   Clear
11:53 AM 72.0 °F - 32.0 °F 23% 29.85 in 10.0 mi SW 21.9 mph 28.8 mph N/A   Clear
12:53 PM 71.1 °F - 30.0 °F 22% 29.84 in 10.0 mi WSW 20.7 mph 27.6 mph N/A   Clear
1:53 PM 72.0 °F - 30.0 °F 21% 29.77 in 10.0 mi West 19.6 mph 29.9 mph N/A   Clear
2:53 PM 75.0 °F - 30.0 °F 19% 29.74 in 10.0 mi WSW 24.2 mph 33.4 mph N/A   Clear
3:53 PM 73.0 °F - 27.0 °F 18% 29.74 in 10.0 mi West 19.6 mph 32.2 mph N/A   Clear
4:53 PM 72.0 °F - 28.0 °F 20% 29.75 in 10.0 mi West 25.3 mph 33.4 mph N/A   Clear
5:53 PM 70.0 °F - 28.9 °F 22% 29.77 in 10.0 mi West 16.1 mph 25.3 mph N/A   Clear
6:33 PM 57.2 °F - 35.6 °F 44% 29.95 in 10.0 mi North 15.0 mph - N/A   Clear
6:53 PM 54.0 °F - 36.0 °F 51% 29.88 in 10.0 mi North 16.1 mph - N/A   Clear
7:53 PM 48.2 °F - 37.4 °F 66% 30.04 in 10.0 mi NNE 6.9 mph - N/A   Clear
8:53 PM 45.0 °F 39.7 °F 36.0 °F 71% 29.99 in 10.0 mi NNE 10.4 mph - N/A   Clear
9:53 PM 44.1 °F 39.5 °F 36.0 °F 73% 29.99 in 10.0 mi NNE 8.1 mph - N/A   Clear
10:53 PM 43.0 °F 39.5 °F 37.0 °F 80% 30.00 in 10.0 mi NE 5.8 mph - N/A   Scattered Clouds
11:01 PM 42.8 °F 38.6 °F 37.4 °F 81% 30.11 in 10.0 mi NE 6.9 mph - N/A   Mostly Cloudy
11:53 PM 42.8 °F 39.3 °F 37.4 °F 81% 30.11 in 10.0 mi NE 5.8 mph - N/A   Overcast